Home   Weather   Kaohsiung   Past weeks

Flag for Taiwan Past Weather in Kaohsiung, Taiwan — Yesterday and Last 2 Weeks

Now
88 °F

Thundershowers. Passing clouds.


Feels Like: 100 °F
Forecast: 82 / 93 °F
Wind: 7 mph from Northwest

Location: Kaohsiung International Airport

Current Time: Aug 18, 2017 at 7:12:16 pm

Latest Report: Aug 18, 2017 at 6:40 pm


Visibility: 5 mi

Pressure: 29.83 "Hg

Humidity: 70%

Dew Point: 77 °F

Location of KaohsiungLocation

Past Weather in Kaohsiung — Graph

°F

Kaohsiung Temperature Yesterday

Maximum temperature yesterday: 93 °F (at 12:00 pm)
Minimum temperature yesterday: 79 °F (at 5:00 am)
Average temperature yesterday: 87 °F

High & Low Weather Summary for the Past Weeks

 TemperatureHumidityPressure
High93 °F (Aug 17, 12:00 pm)100% (Aug 3, 9:30 pm)29.86 "Hg (Aug 3, 9:30 pm)
Low79 °F (Aug 4, 12:00 am)52% (Aug 14, 11:30 am)29.59 "Hg (Aug 3, 6:30 pm)
Average87 °F75%29.77 "Hg
* Reported Aug 3 6:30 pm — Aug 18 6:00 pm, Kaohsiung. Weather by CustomWeather, © 2017

Note: Actual official high and low records may vary slightly from our data, if they occured in-between our weather recording intervals... More about our weather records

Advertising

Kaohsiung Weather History for the Previous 24 Hours

Scroll right to see more
 ConditionsComfort  
Time TempWeatherWind HumidityBarometerVisibility
6:00 pm
Fri, Aug 18
90 °FPartly sunny.8 mph67%29.83 "HgN/A
5:30 pm90 °FPartly sunny.9 mph67%29.83 "HgN/A
5:00 pm90 °FPartly sunny.9 mph67%29.83 "HgN/A
4:30 pm91 °FScattered clouds.12 mph63%29.80 "HgN/A
4:00 pm93 °FPassing clouds.10 mph56%29.80 "HgN/A
3:30 pm91 °FPassing clouds.12 mph63%29.80 "HgN/A
3:00 pm93 °FScattered clouds.12 mph59%29.80 "HgN/A
2:30 pm93 °FScattered clouds.10 mph59%29.83 "HgN/A
2:00 pm93 °FScattered clouds.10 mph53%29.83 "HgN/A
1:30 pm93 °FPassing clouds.10 mph56%29.83 "HgN/A
1:00 pm91 °FBroken clouds.9 mph59%29.86 "HgN/A
12:30 pm93 °FBroken clouds.10 mph59%29.86 "Hg5 mi
12:00 pm93 °FScattered clouds.10 mph59%29.86 "Hg5 mi
11:30 am91 °FScattered clouds.9 mph59%29.86 "Hg4 mi
11:00 am90 °FScattered clouds.8 mph67%29.86 "Hg4 mi
10:30 am91 °FScattered clouds.8 mph63%29.86 "Hg5 mi
10:00 am90 °FScattered clouds.8 mph67%29.86 "Hg6 mi
9:30 am91 °FScattered clouds.3 mph59%29.86 "HgN/A
9:00 am91 °FScattered clouds.5 mph59%29.86 "HgN/A
8:30 am90 °FScattered clouds.3 mph63%29.86 "HgN/A
8:00 am88 °FScattered clouds.5 mph66%29.86 "Hg6 mi
7:30 am88 °FScattered clouds.6 mph66%29.86 "Hg5 mi
7:00 am86 °FPassing clouds.3 mph75%29.86 "Hg6 mi
6:30 am84 °FPassing clouds.3 mph79%29.86 "Hg5 mi
6:00 am81 °FScattered clouds.5 mph89%29.83 "Hg6 mi
5:00 am82 °FPassing clouds.5 mph84%29.83 "HgN/A
4:00 am82 °FPassing clouds.6 mph84%29.83 "HgN/A
3:00 am84 °FPassing clouds.6 mph79%29.83 "HgN/A
2:00 am84 °FPassing clouds.3 mph79%29.83 "HgN/A
1:00 am84 °FPassing clouds.5 mph79%29.86 "HgN/A
12:00 am86 °FPassing clouds.5 mph70%29.86 "HgN/A
11:30 pm
Thu, Aug 17
86 °FPassing clouds.5 mph70%29.86 "HgN/A
11:00 pm86 °FPartly cloudy.5 mph70%29.86 "HgN/A
10:30 pm86 °FPartly cloudy.3 mph70%29.86 "HgN/A
10:00 pm86 °FPartly cloudy.2 mph70%29.86 "HgN/A
9:30 pm86 °FPartly cloudy.3 mph70%29.86 "HgN/A
9:00 pm86 °FPartly cloudy.3 mph70%29.83 "HgN/A
8:30 pm88 °FPartly cloudy.6 mph66%29.83 "HgN/A
8:00 pm88 °FPartly cloudy.5 mph66%29.83 "HgN/A
7:30 pm88 °FPartly cloudy.6 mph66%29.83 "HgN/A
7:00 pm88 °FPartly cloudy.7 mph66%29.80 "HgN/A
Weather by CustomWeather, © 2017

See weather overviewHow to use our weather pages